Tracking 29892 objects as of 21-Nov-2024
HD Live streaming from Space Station
objects crossing your sky now

COSMOS 1867 COOLANT

Track COSMOS 1867 COOLANT now!
10-day predictions


NORAD ID: 50794
Int'l Code: 1987-060AW
Perigee: 771.2 km
Apogee: 800.4 km
Inclination: 65.0 °
Period: 100.4 minutes
Semi major axis: 7156 km
RCS: Unknown
Launch date: July 10, 1987
Source: Commonwealth of Independent States (former USSR) (CIS)
Launch site: TYURATAM MISSILE AND SPACE COMPLEX (TTMTR)

Note: This is SATELLITE DEBRIS
Your satellite tracking list
Your tracking list is empty




NASA's NSSDC Master Catalog

Two Line Element Set (TLE):
1 50794U 87060AW  24320.38425030  .00001238  00000-0  47811-3 0  9990
2 50794  65.0132 196.5611 0020352 262.1631  97.7145 14.33917866325849
Source of the keplerian elements: AFSPC